User: anonymous   Login
Location: Albany
(35.0000°S, 118.0000°E)
Time: 00:38:29
(UTC-05:00)
Language:

Cosmos 1758 Rocket - Orbit

View from above orbital plane
View from above orbital plane
View from above satellite
View from above satellite

Ground track
Ground track

The orbit data is extracted from the following two-line orbital elements,

1 16792U 86046B   14351.57198753  .00000777  00000-0  92829-4 0  6552
2 16792 082.4825 340.9429 0025594 060.2040 050.8785 14.82742301539624
Epoch (UTC): 17 December 2014 13:43:39
Eccentricity: 0.0025594
inclination: 82.4825°
perigee height: 603 km
apogee height: 638 km
right ascension of ascending node: 340.9429°
argument of perigee: 60.2040°
revolutions per day: 14.82742301
mean anomaly at epoch: 50.8785°
orbit number at epoch: 53962

The dashed part of the orbit path shows where the satellite is in the earth's shadow,  

DLR